Lapse_Rate
3.5 3.8 3.9 3.8 3.7 3.6 3.2 3.2 4.3 4.3 3.3 -0.3 -0.7 -2.0 -1.1 -0.1 0.8 1.4 2.4 3.2 3.7 4.8 4.7 4.2 4.0 4.4 4.7 4.9 4.8 4.8 4.7 4.5 4.9 4.9 5.3 5.6 5.6 5.8
1.4 1.5 2.0 2.3 2.4 3.2 3.3 3.6 3.3 4.4 4.6 0.4 -0.7 -1.5 -0.8 -0.4 0.4 0.9 1.7 3.4 3.6 3.9 4.5 3.9 3.7 4.0 4.3 4.6 4.5 4.5 4.4 4.0 4.4 5.0 5.6 5.9 5.9 5.7
1.2 1.5 1.9 2.0 1.5 2.1 2.3 3.0 3.2 3.1 3.7 -1.4 -1.1 -1.3 -0.8 -0.2 0.3 0.9 1.6 3.1 3.9 5.1 4.8 3.9 3.7 3.6 3.9 4.3 4.1 4.3 4.2 4.4 4.4 4.7 5.1 5.7 5.7 5.3
1.7 1.6 1.9 1.5 1.9 2.6 2.4 2.8 2.8 2.4 2.4 0.3 -1.2 -0.9 -0.7 -0.1 0.7 1.1 2.1 3.0 4.2 5.2 5.7 4.4 4.1 3.5 3.8 3.8 3.5 3.5 3.6 3.9 4.1 4.2 4.8 5.0 4.9 4.7
1.0 1.8 1.9 1.9 2.5 2.8 2.0 2.2 1.9 1.6 1.6 0.6 -0.7 -0.7 -0.6 0.2 0.8 1.7 2.1 2.7 3.9 4.9 5.6 4.7 3.4 3.6 3.6 3.8 3.5 3.5 3.5 3.3 3.2 3.3 3.5 3.5 3.7 3.9
-0.1 0.3 0.9 2.2 3.3 2.7 2.0 1.8 1.4 1.4 1.3 1.0 0.3 0.1 0.6 1.0 1.6 1.9 1.9 2.2 2.5 3.4 3.6 3.2 3.3 3.6 3.4 3.7 3.3 2.9 2.8 2.9 2.9 2.9 2.8 2.9 3.1 3.9
-1.0 -0.7 -0.1 1.1 2.9 2.8 2.0 1.8 1.3 1.4 1.6 1.2 1.0 0.9 0.3 1.5 2.0 1.6 1.6 1.3 1.0 0.8 0.6 0.8 1.4 1.4 2.1 2.8 2.5 2.5 2.5 2.5 3.0 3.6 3.8 3.7 3.9 4.2
-1.6 -1.2 -0.1 1.6 3.2 4.1 3.5 2.6 2.0 1.7 1.1 1.1 0.8 1.1 1.2 2.2 1.2 1.8 0.9 1.3 2.0 -0.4 0.3 0.4 0.3 0.1 0.7 1.3 1.9 2.6 3.1 2.8 3.0 3.4 3.4 3.4 3.7 3.9
-1.1 -0.8 0.6 2.2 3.2 3.0 3.2 2.9 3.1 3.3 2.5 1.4 2.3 1.8 1.3 0.8 1.0 1.0 1.2 0.5 0.5 -0.9 -0.4 0.6 -0.7 0.2 0.3 1.3 3.0 3.1 2.8 2.8 3.1 3.4 3.4 3.5 3.5 3.5
-0.4 0.7 3.0 3.1 2.8 2.9 2.3 1.3 0.6 0.4 1.1 1.9 1.7 1.8 1.6 0.5 1.6 0.7 0.5 -0.2 -0.1 -0.6 -0.3 -0.7 -1.2 0.0 -0.3 0.4 2.2 2.8 2.6 2.7 3.1 3.3 3.5 3.3 3.3 3.4
0.3 2.5 3.0 3.1 3.7 3.8 2.3 1.7 1.8 1.6 3.1 2.6 2.5 2.1 2.2 2.0 0.8 0.4 0.0 0.9 0.1 0.0 -1.0 0.1 -1.2 -0.7 -1.2 -0.8 0.5 2.2 2.4 2.9 3.6 3.8 3.4 3.5 3.7 3.9
1.8 2.6 3.5 3.4 4.0 4.1 2.0 1.8 1.9 1.6 1.3 0.7 -0.4 0.8 1.5 2.8 2.6 0.9 0.9 0.8 -1.0 -0.8 -1.2 -0.7 -1.8 -1.7 -1.4 -1.8 -1.1 -0.2 0.9 1.6 2.5 2.9 3.0 3.2 3.5 2.3
2.3 2.6 2.6 4.4 5.0 5.8 4.0 2.3 2.6 1.6 2.6 -0.0 -0.9 -0.5 -0.7 -0.3 -0.4 0.2 0.4 -1.0 -1.1 -2.2 -1.0 -2.7 -5.5 -3.5 -4.0 -2.5 -3.0 -1.5 -0.5 -0.0 0.3 0.6 1.0 1.7 2.7 3.0
2.8 2.8 2.8 4.4 5.3 5.9 5.3 4.2 4.7 3.6 0.2 0.5 0.5 -0.7 -0.5 -0.2 -0.9 -1.1 -0.6 -0.6 -0.2 -0.7 0.3 -1.2 -4.8 -4.6 -5.3 -5.0 -2.4 -2.6 -2.2 -0.7 -0.6 -0.2 0.4 0.8 1.4 1.8
2.5 3.4 4.7 5.5 6.8 5.6 6.0 5.3 5.7 1.3 1.3 0.8 0.6 0.2 -0.0 0.0 -0.8 -1.4 -1.2 -1.3 -0.9 -0.3 -0.7 -0.5 -3.5 -6.4 -6.0 -6.9 -5.3 -3.7 -2.6 -2.7 -1.0 -1.8 -1.2 -0.5 -0.5 0.1
4.7 3.3 4.7 4.9 5.0 3.9 4.3 3.6 2.0 1.3 1.4 1.6 1.7 1.3 -0.2 -1.1 -0.8 -1.4 -1.6 -2.9 -2.0 -1.6 -1.3 -0.6 -0.8 -2.6 -5.1 -3.7 -6.0 -5.0 -3.9 -2.7 -3.7 -2.6 -1.4 -1.1 -0.0 0.2
3.5 2.5 2.3 2.6 2.5 2.5 2.3 2.5 1.9 2.6 1.6 1.5 1.0 0.7 1.0 0.5 0.1 -1.6 -2.4 -2.2 -1.4 -1.9 -2.2 -1.8 -1.1 -1.5 -2.3 -4.7 -5.9 -3.8 -3.1 -4.3 -1.9 -1.6 -3.2 -4.4 -1.4 0.7
3.8 2.3 1.7 2.3 2.3 2.6 2.8 3.0 2.3 3.1 1.9 1.5 1.7 1.6 1.6 0.9 0.6 -1.2 -1.8 -1.1 -1.2 -0.9 -1.2 -2.1 -2.7 -2.2 -2.0 -2.3 -1.4 -3.7 -2.9 -1.1 0.6 -0.1 -2.4 -1.1 -1.0 0.5
4.1 2.1 1.6 1.2 2.0 1.8 1.7 1.9 1.9 2.0 1.8 2.2 1.6 1.3 0.7 0.8 2.3 0.1 -0.1 -0.3 -0.9 -1.3 -2.1 -3.6 -4.9 -3.4 -2.9 -2.2 -2.0 0.7 -1.1 -0.3 0.1 -0.4 -0.2 -0.6 -1.7 -0.6
3.0 3.0 1.1 1.2 1.5 1.4 1.7 1.9 1.7 1.2 1.8 1.8 1.5 1.1 1.2 1.0 1.3 0.5 0.2 -0.3 -0.7 -1.8 -3.5 -5.1 -4.2 -2.4 -1.6 -1.0 -2.4 -3.3 0.7 -1.5 -0.7 -0.8 -0.4 0.5 0.2 0.9
3.5 2.9 1.5 1.6 1.7 1.6 1.1 0.8 0.8 0.7 0.9 1.0 1.3 1.3 1.2 1.1 1.0 0.9 0.5 1.4 0.4 -0.6 -1.3 -2.0 -1.4 2.2 -1.2 -1.6 -1.4 -1.1 -0.3 1.5 1.4 -1.2 -1.7 -2.0 -0.8 -0.6
3.3 2.8 2.3 2.3 1.7 1.4 1.3 0.9 0.5 1.1 1.2 0.7 0.6 0.7 0.7 0.8 1.1 0.9 0.4 0.9 1.7 1.0 -0.2 -2.8 -2.9 -1.5 -2.1 -0.1 0.3 0.2 -0.7 0.6 2.7 3.4 3.1 1.6 -1.2 -0.3
3.5 2.7 2.5 1.8 1.8 1.8 1.4 1.3 0.9 0.8 0.3 0.4 -0.1 -0.2 0.2 0.1 0.8 1.0 0.7 0.9 1.0 1.6 0.6 -1.1 -1.8 -1.1 -0.3 0.6 1.7 1.1 0.1 -0.6 0.4 1.2 1.4 3.0 3.4 3.2
Wind_Speed
4 4 5 4 4 6 5 4 4 3 6 3 3 6 8 8 6 7 9 9 9 10 12 14 11 10 11 13 15 15 13 11 9 8 8 6 5 4
3 5 4 3 3 3 4 4 3 4 3 2 2 3 7 7 8 6 5 8 7 6 9 11 8 8 8 8 9 11 10 10 9 8 6 6 5 4
3 4 5 4 3 2 3 1 2 2 3 1 1 2 3 4 6 6 4 6 5 5 6 7 7 6 6 8 10 11 9 9 7 5 5 5 5 4
4 3 5 3 4 3 2 3 2 1 3 3 2 2 2 3 5 5 5 6 7 5 5 8 8 8 7 7 8 8 7 7 8 6 6 5 4 3
5 4 4 3 4 2 2 2 1 1 2 3 2 2 2 3 3 3 4 6 8 7 7 7 6 5 5 4 5 6 6 6 6 5 5 4 3 2
5 5 4 4 4 3 2 2 1 1 2 3 2 2 2 3 3 3 2 1 2 5 6 5 4 5 5 4 4 3 3 3 4 3 3 3 2 1
5 5 5 6 6 3 1 2 2 2 2 1 2 2 2 2 5 3 3 3 1 2 1 2 1 2 2 5 5 3 3 3 3 3 3 2 1 2
5 5 4 6 5 4 2 3 4 3 3 2 2 3 4 3 3 4 3 2 3 4 2 1 1 0 2 4 5 5 3 3 3 5 4 2 3 4
4 4 4 2 3 2 5 6 1 4 5 4 4 4 4 6 6 4 3 3 3 3 3 2 1 1 1 2 5 5 2 2 5 7 6 5 3 2
4 4 4 3 2 2 2 3 3 3 3 1 4 4 3 7 6 4 4 5 3 3 2 2 1 1 1 1 1 3 1 2 4 7 7 6 3 1
4 4 3 3 4 4 2 3 2 3 5 6 4 6 6 10 12 6 3 4 1 2 2 2 2 1 1 1 1 3 2 1 3 7 7 4 4 4
3 4 5 3 5 4 3 3 3 0 2 5 4 8 9 9 9 3 4 4 2 1 3 3 2 2 1 1 1 1 2 3 4 2 1 1 2 1
3 3 3 6 6 7 5 3 3 4 3 4 4 3 4 4 4 5 5 3 3 1 4 3 2 1 1 1 0 1 2 1 1 1 2 3 4 5
3 2 3 7 8 7 5 6 6 6 3 3 2 2 3 1 2 7 7 6 4 3 12 7 3 3 3 1 1 1 1 3 3 0 3 0 3 6
3 5 8 9 9 5 6 5 8 4 3 2 2 2 2 3 6 5 8 10 10 8 9 4 5 3 2 2 2 1 1 1 3 3 3 3 4 5
5 4 5 7 7 5 4 3 2 4 4 3 2 2 2 3 2 1 1 1 2 0 2 6 10 7 2 2 3 1 2 1 1 2 1 6 8 8
3 1 1 2 2 2 2 3 2 3 3 3 2 3 3 3 2 1 2 1 2 2 1 2 7 8 8 5 2 4 2 2 3 2 1 2 5 9
3 3 3 3 4 4 4 4 3 5 3 3 3 4 4 5 4 2 2 2 2 3 3 2 2 1 1 6 14 3 2 2 4 4 2 2 3 6
3 3 4 3 4 4 3 3 4 4 4 4 4 5 4 4 6 4 4 3 3 3 3 2 2 2 2 2 2 14 4 3 2 2 3 3 3 5
3 6 5 4 5 5 5 5 5 3 5 5 5 5 5 4 4 4 5 5 4 3 2 2 3 3 4 3 2 2 8 3 3 2 2 2 9 14
4 4 5 5 6 5 5 5 5 5 5 4 6 6 6 6 6 6 6 11 9 4 6 6 6 13 5 4 2 2 3 13 12 4 2 1 2 2
5 5 5 6 6 6 6 6 5 6 6 6 6 6 6 7 7 7 7 6 7 7 7 2 2 3 3 6 7 4 2 2 11 13 14 13 4 2
7 5 6 6 6 6 6 6 7 6 7 7 7 7 7 7 7 7 7 7 6 7 6 3 3 3 4 6 9 5 4 3 2 3 5 18 22 26
Wind_Direction
276 273 267 253 241 242 229 216 216 200 216 190 168 195 172 158 142 130 109 82 65 65 71 80 70 57 60 73 86 97 103 108 115 116 122 127 98 86
299 306 290 272 265 254 241 228 200 215 229 123 175 153 167 165 152 141 117 104 95 91 87 83 84 71 70 83 94 102 107 113 114 116 118 111 120 96
284 287 295 303 293 293 286 274 230 209 177 83 105 133 150 158 144 143 136 116 86 79 83 97 91 93 96 97 98 97 98 95 95 99 102 112 107 87
298 297 286 303 298 303 279 266 236 177 124 135 109 130 132 157 148 138 152 119 109 104 110 105 108 103 98 101 96 98 102 100 96 83 88 98 88 72
307 306 295 279 283 279 285 232 150 114 102 129 134 139 114 154 140 126 125 113 110 116 122 120 126 125 113 107 102 106 110 106 97 90 92 98 95 82
351 348 336 325 298 292 263 240 142 161 135 127 108 145 129 156 142 148 143 59 86 94 94 108 123 136 139 148 123 114 116 123 121 129 126 119 117 130
354 1 355 346 332 310 263 249 189 181 161 112 142 129 159 156 182 160 140 130 82 94 72 29 101 114 119 138 146 170 170 165 171 171 157 155 183 215
328 330 335 344 339 310 285 266 224 194 197 161 165 175 176 159 131 164 119 138 183 180 140 177 157 273 181 167 159 148 150 153 185 191 197 217 241 234
306 302 303 319 1 32 59 55 19 261 205 187 190 196 169 172 145 147 156 136 165 150 119 172 29 189 224 147 165 156 164 248 245 232 223 217 196 195
307 290 283 282 287 173 102 58 22 10 340 232 209 201 188 161 164 159 145 106 79 94 131 151 141 192 287 84 166 157 179 273 249 221 200 178 181 223
309 290 277 264 253 203 152 135 74 13 39 99 105 124 134 155 145 120 130 135 124 168 157 129 166 144 28 341 107 100 91 215 186 170 171 195 237 266
309 300 287 260 257 202 190 180 168 112 52 65 40 56 90 135 151 56 145 148 118 90 195 129 144 147 345 267 161 109 125 84 83 121 240 276 287 301
283 295 294 277 259 253 196 212 208 155 142 96 95 82 64 64 67 88 128 131 137 184 174 114 140 106 98 176 294 159 149 163 256 269 332 300 271 259
259 270 275 274 262 253 215 223 231 167 134 131 124 114 103 81 70 88 96 99 92 151 160 135 129 147 145 51 195 356 234 276 205 241 291 250 345 300
223 260 258 254 252 244 236 227 229 149 148 140 172 160 144 133 115 84 81 90 85 104 133 121 131 154 125 150 175 228 63 295 273 233 151 4 315 287
226 263 255 243 235 207 232 288 164 170 171 182 176 133 113 126 147 127 119 77 84 357 152 165 161 148 116 202 153 234 199 235 266 210 310 310 302 273
215 203 223 219 221 222 226 219 190 200 173 165 159 163 168 164 163 143 108 129 160 158 170 181 193 189 191 158 201 214 208 222 220 244 94 294 274 275
206 200 209 208 213 214 218 228 203 214 200 181 185 180 183 181 172 143 134 169 172 176 182 190 130 120 310 254 221 191 207 223 246 249 198 223 267 264
204 207 217 199 219 206 197 198 227 221 184 201 192 196 177 179 195 180 186 178 201 185 199 176 150 139 164 257 287 215 202 208 199 229 224 216 243 274
185 219 208 199 212 211 212 219 220 198 205 208 202 199 194 184 187 193 195 200 198 176 186 196 191 182 177 205 224 265 228 173 181 216 240 244 262 279
226 216 200 207 216 217 216 210 206 209 211 202 210 205 202 196 210 205 201 212 206 194 216 223 218 214 151 103 264 253 260 224 218 190 213 208 275 281
227 220 210 212 213 213 216 214 215 224 217 208 212 206 203 201 212 205 201 205 213 212 225 208 153 139 157 202 237 232 231 253 238 252 246 226 178 261
234 225 219 213 217 219 217 216 217 220 213 210 206 205 200 206 209 210 203 206 205 214 201 192 164 159 210 216 232 240 220 220 218 244 253 258 255 254